sat.trackr.live / text

‹ back to catalog

STARLINK-37652

NORAD 69354 · 2026-123B

PAYLOAD ACTIVE UNKNOWN

§ Identity

Operator
Country
US
Launch date
2026-06-04
Launch site
AFETR
Launch vehicle
Mass (kg)
RCS (m²)

Purposes: comms

External: N2YO · Heavens-Above · Gunter

§ Orbital elements

Epoch: 2026-09-19T22:54:27.769248Z

Period
93.79 min
Inclination
53.1566°
Eccentricity
0.0000560
Mean motion
15.35406961 rev/d
Perigee alt
459.3 km
Apogee alt
460.1 km
Semi-major
6,837.8 km
B*
2.9085e-4
RAAN
145.1837°
Arg perigee
81.6165°
Mean anomaly
278.4901°
Rev number
1,677

§ Raw data

STARLINK-376521 69354U 26123B   26262.95448807  .00009781  00000+0  29085-3 0  99952 69354  53.1566 145.1837 0000560  81.6165 278.4901 15.35406961 16774

JSON: /api/v1/satellites/69354 · /tle

For live sub-satellite position, see the globe view (requires WebGL).

§ Visibility from observer

Set your observer location to see the next 7 days of passes ≥ 10°. The values pass through the URL so the page stays shareable.

No JS? Fill the form by hand. The geolocation button needs JavaScript.